• In Latvia
  • List of Countries
  • For 7 days
  • Water Temperature
  • Satellite Maps
  • Weather Map
  • Weather Widgets
  • user-avatar
    Login

    Hourly Weather Limbazi

    Today, 14 August, Tuesday

    Time Temperature Precipitation Wind Pressure Humidity
    00:00 +13°C° 0 mm 1 mps 752 mmHg 92%
    01:00 +12°C° 0 mm 1 mps 752 mmHg 92%
    02:00 +12°C° 0 mm 1 mps 753 mmHg 93%
    03:00 +12°C° 0 mm 1 mps 753 mmHg 93%
    04:00 +12°C° 0 mm 1 mps 753 mmHg 94%
    05:00 +12°C° 0 mm 1 mps 753 mmHg 94%
    06:00 +13°C° 0 mm 1 mps 753 mmHg 88%
    07:00 +15°C° 0 mm 2 mps 753 mmHg 82%
    08:00 +17°C° 0 mm 2 mps 753 mmHg 77%
    09:00 +18°C° 0 mm 2 mps 753 mmHg 70%
    10:00 +20°C° 0 mm 2 mps 753 mmHg 63%
    11:00 +21°C° 0 mm 2 mps 752 mmHg 57%
    12:00 +23°C° 0 mm 2 mps 752 mmHg 55%
    13:00 +24°C° 0 mm 2 mps 752 mmHg 53%
    14:00 +25°C° 0 mm 1 mps 752 mmHg 51%
    15:00 +24°C° 0.2 mm 1 mps 751 mmHg 59%
    16:00 +23°C° 0.2 mm 1 mps 751 mmHg 67%
    17:00 +22°C° 0.2 mm 1 mps 751 mmHg 75%
    18:00 +21°C° 0.9 mm 1 mps 750 mmHg 81%
    19:00 +19°C° 0.9 mm 2 mps 750 mmHg 87%
    20:00 +17°C° 0.9 mm 2 mps 749 mmHg 93%
    21:00 +17°C° 1.5 mm 3 mps 749 mmHg 94%
    22:00 +17°C° 1.5 mm 3 mps 749 mmHg 95%
    23:00 +17°C° 1.5 mm 3 mps 748 mmHg 97%

    Tomorrow, 15 August, Wednesday

    Time Temperature Precipitation Wind Pressure Humidity
    00:00 +17°C° 1.5 mm 3 mps 748 mmHg 97%
    01:00 +17°C° 1.5 mm 3 mps 748 mmHg 97%
    02:00 +17°C° 1.5 mm 3 mps 747 mmHg 98%
    03:00 +17°C° 0.9 mm 3 mps 747 mmHg 98%
    04:00 +17°C° 0.9 mm 2 mps 747 mmHg 98%
    05:00 +17°C° 0.9 mm 2 mps 747 mmHg 98%
    06:00 +17°C° 0.4 mm 2 mps 747 mmHg 98%
    07:00 +17°C° 0.4 mm 2 mps 747 mmHg 97%
    08:00 +17°C° 0.4 mm 3 mps 748 mmHg 97%
    09:00 +18°C° 0.1 mm 3 mps 748 mmHg 96%
    10:00 +18°C° 0.1 mm 2 mps 748 mmHg 94%
    11:00 +18°C° 0.1 mm 2 mps 749 mmHg 93%
    12:00 +19°C° 0.2 mm 2 mps 749 mmHg 91%
    13:00 +19°C° 0.2 mm 2 mps 749 mmHg 89%
    14:00 +19°C° 0.2 mm 2 mps 750 mmHg 88%
    15:00 +19°C° 0.1 mm 2 mps 750 mmHg 86%
    16:00 +20°C° 0.1 mm 3 mps 750 mmHg 85%
    17:00 +20°C° 0.1 mm 3 mps 751 mmHg 84%
    18:00 +19°C° 0 mm 2 mps 751 mmHg 88%
    19:00 +18°C° 0 mm 2 mps 752 mmHg 92%
    20:00 +17°C° 0 mm 2 mps 752 mmHg 96%
    21:00 +16°C° 0 mm 2 mps 752 mmHg 96%
    22:00 +16°C° 0 mm 2 mps 753 mmHg 97%
    23:00 +15°C° 0 mm 2 mps 753 mmHg 97%

    Day after tomorrow, 16 August, Thursday

    Time Temperature Precipitation Wind Pressure Humidity
    00:00 +15°C° 0 mm 2 mps 754 mmHg 97%
    01:00 +14°C° 0 mm 1 mps 754 mmHg 97%
    02:00 +14°C° 0 mm 1 mps 754 mmHg 97%
    03:00 +14°C° 0 mm 1 mps 755 mmHg 97%
    04:00 +14°C° 0 mm 1 mps 755 mmHg 97%
    05:00 +13°C° 0 mm 1 mps 755 mmHg 97%
    06:00 +15°C° 0 mm 1 mps 756 mmHg 93%
    07:00 +16°C° 0 mm 1 mps 756 mmHg 88%
    08:00 +19°C° 0 mm 1 mps 757 mmHg 84%
    09:00 +19°C° 0 mm 0 mps 757 mmHg 76%
    10:00 +20°C° 0 mm 0 mps 757 mmHg 68%
    11:00 +22°C° 0 mm 0 mps 757 mmHg 60%
    12:00 +25°C° 0 mm 1 mps 757 mmHg 59%
    13:00 +25°C° 0 mm 1 mps 757 mmHg 57%
    14:00 +25°C° 0 mm 1 mps 757 mmHg 56%
    15:00 +25°C° 0 mm 1 mps 757 mmHg 57%
    16:00 +24°C° 0 mm 1 mps 757 mmHg 59%
    17:00 +24°C° 0 mm 1 mps 757 mmHg 61%
    18:00 +22°C° 0 mm 1 mps 757 mmHg 68%
    19:00 +20°C° 0 mm 1 mps 758 mmHg 74%
    20:00 +19°C° 0 mm 1 mps 758 mmHg 80%
    21:00 +18°C° 0 mm 1 mps 758 mmHg 83%
    22:00 +18°C° 0 mm 1 mps 758 mmHg 85%
    23:00 +16°C° 0 mm 2 mps 758 mmHg 87%

    17 August, Friday

    Time Temperature Precipitation Wind Pressure Humidity
    00:00 +16°C° 0 mm 2 mps 758 mmHg 89%
    01:00 +15°C° 0 mm 2 mps 758 mmHg 91%
    02:00 +15°C° 0 mm 2 mps 758 mmHg 93%
    03:00 +15°C° 0 mm 2 mps 758 mmHg 94%
    04:00 +15°C° 0 mm 2 mps 758 mmHg 95%
    05:00 +15°C° 0 mm 2 mps 758 mmHg 96%
    06:00 +16°C° 0 mm 3 mps 759 mmHg 90%
    07:00 +18°C° 0 mm 3 mps 759 mmHg 84%
    08:00 +19°C° 0 mm 3 mps 759 mmHg 78%
    09:00 +20°C° 0 mm 3 mps 759 mmHg 71%
    10:00 +22°C° 0 mm 3 mps 759 mmHg 64%
    11:00 +24°C° 0 mm 3 mps 759 mmHg 56%
    12:00 +25°C° 0 mm 3 mps 758 mmHg 55%
    13:00 +25°C° 0 mm 3 mps 758 mmHg 53%
    14:00 +26°C° 0 mm 3 mps 758 mmHg 51%
    15:00 +26°C° 0 mm 2 mps 757 mmHg 52%
    16:00 +26°C° 0 mm 2 mps 757 mmHg 54%
    17:00 +26°C° 0 mm 2 mps 757 mmHg 55%
    18:00 +24°C° 0 mm 2 mps 757 mmHg 62%
    19:00 +21°C° 0 mm 2 mps 757 mmHg 70%
    20:00 +20°C° 0 mm 2 mps 757 mmHg 77%
    21:00 +19°C° 0 mm 2 mps 757 mmHg 80%
    22:00 +18°C° 0 mm 3 mps 757 mmHg 83%
    23:00 +17°C° 0 mm 3 mps 757 mmHg 86%

    18 August, Saturday

    Time Temperature Precipitation Wind Pressure Humidity
    00:00 +17°C° 0 mm 3 mps 756 mmHg 88%
    01:00 +17°C° 0 mm 3 mps 756 mmHg 90%
    02:00 +16°C° 0 mm 3 mps 756 mmHg 92%
    03:00 +16°C° 0 mm 3 mps 756 mmHg 93%
    04:00 +16°C° 0 mm 3 mps 756 mmHg 94%
    05:00 +16°C° 0 mm 3 mps 756 mmHg 95%
    06:00 +17°C° 0 mm 3 mps 756 mmHg 89%
    07:00 +19°C° 0 mm 3 mps 756 mmHg 84%
    08:00 +20°C° 0 mm 4 mps 756 mmHg 78%
    09:00 +22°C° 0 mm 4 mps 755 mmHg 72%
    10:00 +23°C° 0 mm 4 mps 755 mmHg 66%
    11:00 +26°C° 0 mm 4 mps 755 mmHg 59%
    12:00 +26°C° 0.1 mm 4 mps 755 mmHg 57%
    13:00 +27°C° 0.1 mm 4 mps 755 mmHg 55%
    14:00 +27°C° 0.1 mm 4 mps 755 mmHg 53%
    15:00 +26°C° 0.5 mm 4 mps 755 mmHg 63%
    16:00 +25°C° 0.5 mm 3 mps 754 mmHg 72%
    17:00 +24°C° 0.5 mm 3 mps 754 mmHg 82%
    18:00 +21°C° 0.2 mm 3 mps 754 mmHg 86%
    19:00 +20°C° 0.2 mm 3 mps 755 mmHg 90%
    20:00 +19°C° 0.2 mm 3 mps 755 mmHg 93%
    21:00 +18°C° 0 mm 3 mps 755 mmHg 93%
    22:00 +17°C° 0 mm 3 mps 755 mmHg 93%
    23:00 +16°C° 0 mm 3 mps 755 mmHg 92%

    19 August, Sunday

    Time Temperature Precipitation Wind Pressure Humidity
    00:00 +16°C° 0 mm 3 mps 755 mmHg 93%
    01:00 +14°C° 0 mm 3 mps 755 mmHg 93%
    02:00 +14°C° 0 mm 4 mps 754 mmHg 93%
    03:00 +14°C° 0 mm 4 mps 754 mmHg 94%
    04:00 +14°C° 0 mm 4 mps 754 mmHg 94%
    05:00 +13°C° 0 mm 4 mps 754 mmHg 95%
    06:00 +14°C° 0 mm 5 mps 754 mmHg 92%
    07:00 +15°C° 0 mm 5 mps 754 mmHg 90%
    08:00 +16°C° 0 mm 5 mps 754 mmHg 88%
    09:00 +17°C° 0.3 mm 5 mps 754 mmHg 87%
    10:00 +17°C° 0.3 mm 5 mps 754 mmHg 87%
    11:00 +19°C° 0.3 mm 5 mps 754 mmHg 86%
    12:00 +17°C° 0.5 mm 5 mps 754 mmHg 88%
    13:00 +17°C° 0.5 mm 5 mps 754 mmHg 91%
    14:00 +17°C° 0.5 mm 5 mps 754 mmHg 93%
    15:00 +18°C° 0.1 mm 4 mps 754 mmHg 92%
    16:00 +18°C° 0.1 mm 4 mps 754 mmHg 90%
    17:00 +19°C° 0.1 mm 3 mps 754 mmHg 88%
    18:00 +18°C° 0.1 mm 3 mps 754 mmHg 89%
    19:00 +17°C° 0.1 mm 2 mps 754 mmHg 91%
    20:00 +16°C° 0.1 mm 2 mps 754 mmHg 92%
    21:00 +16°C° 0 mm 2 mps 754 mmHg 92%
    22:00 +15°C° 0 mm 2 mps 755 mmHg 93%
    23:00 +14°C° 0 mm 2 mps 755 mmHg 93%
    Show more